datetime,inflow
1958-04-17,-958.19
1958-04-18,690.62
1958-04-19,733.1
1958-04-20,773.56
1958-04-21,837.23
1958-04-22,747.12
1958-04-23,550.71
1958-04-24,731.84
1958-04-25,633.15
1958-04-26,531.42
1958-04-27,578.94
1958-04-28,530.25
1958-04-29,489.52
1958-04-30,544.08
1958-05-01,495.3
1958-05-02,603.31
1958-05-03,679.56
1958-05-04,740.3
1958-05-05,853.9
1958-05-06,1164.68
1958-05-07,1269.77
1958-05-08,1206.46
1958-05-09,1325.28
1958-05-10,1499.97
1958-05-11,1507.78
1958-05-12,1491.88
1958-05-13,1470.94
1958-05-14,1532.8
1958-05-15,1391.36
1958-05-16,1230.12
1958-05-17,1205.12
1958-05-18,1232.54
1958-05-19,1561.53
1958-05-20,2058.9
1958-05-21,2259.48
1958-05-22,2136.36
1958-05-23,1937.47
1958-05-24,2535.91
1958-05-25,2298.9
1958-05-26,2016.84
1958-05-27,1245.72
1958-05-28,1250.51
1958-05-29,1253.78
1958-05-30,1458.61
1958-05-31,993.97
1958-06-01,1464.95
1958-06-02,1407.2
1958-06-03,1421.39
1958-06-04,1106.95
1958-06-05,1301.23
1958-06-06,1213.52
1958-06-07,1329.12
1958-06-08,2251.98
1958-06-09,1687.46
1958-06-10,747.07
1958-06-11,656.33
1958-06-12,277.22
1958-06-13,351.26
1958-06-14,634.23
1958-06-15,681.76
1958-06-16,776.95
1958-06-17,722.52
1958-06-18,619.17
1958-06-19,624.72
1958-06-20,479.36
1958-06-21,584.22
1958-06-22,566.58
1958-06-23,551.45
1958-06-24,334.99
1958-06-25,477.15
1958-06-26,539.16
1958-06-27,404.39
1958-06-28,337.81
1958-06-29,143.12
1958-06-30,278.69
1958-07-01,201.86
1958-07-02,316.77
1958-07-03,115.02
1958-07-04,224.86
1958-07-05,235.24
1958-07-06,241.23
1958-07-07,304.7
1958-07-08,200.26
1958-07-09,231.81
1958-07-10,23.47
1958-07-11,199.84
1958-07-12,203.67
1958-07-13,236.87
1958-07-14,135.44
1958-07-15,273.51
1958-07-16,104.89
1958-07-17,59.92
1958-07-18,210.46
1958-07-19,166.0
1958-07-20,215.22
1958-07-21,210.98
1958-07-22,158.98
1958-07-23,215.75
1958-07-24,147.61
1958-07-25,206.91
1958-07-26,90.36
1958-07-27,60.93
1958-07-28,224.21
1958-07-29,286.05
1958-07-30,92.87
1958-07-31,202.59
1958-08-01,192.94
1958-08-02,180.77
1958-08-03,216.9
1958-08-04,165.91
1958-08-05,194.98
1958-08-06,212.97
1958-08-07,69.21
1958-08-08,134.08
1958-08-09,226.8
1958-08-10,135.88
1958-08-11,114.15
1958-08-12,174.48
1958-08-13,138.62
1958-08-14,192.92
1958-08-15,131.85
1958-08-16,128.16
1958-08-17,175.9
1958-08-18,180.78
1958-08-19,78.78
1958-08-20,129.03
1958-08-21,188.37
1958-08-22,138.39
1958-08-23,119.57
1958-08-24,137.06
1958-08-25,176.23
1958-08-26,69.18
1958-08-27,168.35
1958-08-28,163.15
1958-08-29,193.87
1958-08-30,191.2
1958-08-31,89.71
1958-09-01,127.48
1958-09-02,168.17
1958-09-03,159.46
1958-09-04,83.68
1958-09-05,81.53
1958-09-06,182.23
1958-09-07,182.7
1958-09-08,183.08
1958-09-09,129.51
1958-09-10,130.39
1958-09-11,184.2
1958-09-12,161.9
1958-09-13,194.05
1958-09-14,39.74
1958-09-15,170.7
1958-09-16,166.95
1958-09-17,170.37
1958-09-18,121.84
1958-09-19,174.16
1958-09-20,299.0
1958-09-21,45.28
1958-09-22,76.41
1958-09-23,217.37
1958-09-24,70.54
1958-09-25,116.3
1958-09-26,116.69
1958-09-27,163.37
1958-09-28,164.77
1958-09-29,164.66
1958-09-30,113.53
1958-10-01,104.35
1958-10-02,151.12
1958-10-03,151.52
1958-10-04,151.32
1958-10-05,98.28
1958-10-06,39.68
1958-10-07,150.92
1958-10-08,103.43
1958-10-09,149.71
1958-10-10,103.23
1958-10-11,148.93
1958-10-12,149.34
1958-10-13,149.24
1958-10-14,134.44
1958-10-15,129.3
1958-10-16,174.08
1958-10-17,173.99
1958-10-18,173.9
1958-10-19,173.72
1958-10-20,127.74
1958-10-21,168.49
1958-10-22,168.4
1958-10-23,122.93
1958-10-24,168.21
1958-10-25,168.12
1958-10-26,167.94
1958-10-27,167.85
1958-10-28,213.14
1958-10-29,167.67
1958-10-30,213.46
1958-10-31,212.36
1958-11-01,221.44
1958-11-02,177.4
1958-11-03,231.76
1958-11-04,174.19
1958-11-05,214.43
1958-11-06,212.83
1958-11-07,256.61
1958-11-08,209.03
1958-11-09,208.94
1958-11-10,255.24
1958-11-11,254.14
1958-11-12,206.66
1958-11-13,207.58
1958-11-14,252.77
1958-11-15,252.68
1958-11-16,207.31
1958-11-17,206.72
1958-11-18,207.22
1958-11-19,208.64
1958-11-20,255.03
1958-11-21,299.4
1958-11-22,299.31
1958-11-23,253.43
1958-11-24,305.77
1958-11-25,265.95
1958-11-26,268.88
1958-11-27,356.1
1958-11-28,219.88
1958-11-29,173.5
1958-11-30,220.29
1958-12-01,220.29
1958-12-02,221.8
1958-12-03,362.88
1958-12-04,320.53
1958-12-05,265.48
1958-12-06,168.68
1958-12-07,261.35
1958-12-08,257.32
1958-12-09,257.23
1958-12-10,302.6
1958-12-11,256.22
1958-12-12,256.13
1958-12-13,302.51
1958-12-14,256.04
1958-12-15,255.53
1958-12-16,256.04
1958-12-17,209.56
1958-12-18,255.94
1958-12-19,209.56
1958-12-20,255.94
1958-12-21,255.94
1958-12-22,209.05
1958-12-23,255.94
1958-12-24,255.94
1958-12-25,209.56
1958-12-26,255.94
1958-12-27,255.85
1958-12-28,209.46
1958-12-29,209.46
1958-12-30,163.08
1958-12-31,209.97
1959-01-01,208.96
1959-01-02,255.85
1959-01-03,209.97
1959-01-04,163.08
1959-01-05,209.96
1959-01-06,209.37
1959-01-07,209.87
1959-01-08,255.75
1959-01-09,209.87
1959-01-10,209.37
1959-01-11,255.75
1959-01-12,255.75
1959-01-13,255.75
1959-01-14,256.76
1959-01-15,257.77
1959-01-16,214.91
1959-01-17,210.37
1959-01-18,209.87
1959-01-19,264.82
1959-01-20,262.81
1959-01-21,216.93
1959-01-22,216.93
1959-01-23,217.02
1959-01-24,216.51
1959-01-25,262.9
1959-01-26,261.89
1959-01-27,260.88
1959-01-28,260.88
1959-01-29,260.88
1959-01-30,260.97
1959-01-31,215.6
1959-02-01,169.21
1959-02-02,215.6
1959-02-03,214.59
1959-02-04,238.79
1959-02-05,210.55
1959-02-06,190.89
1959-02-07,254.51
1959-02-08,273.67
1959-02-09,209.13
1959-02-10,264.59
1959-02-11,264.59
1959-02-12,264.59
1959-02-13,255.02
1959-02-14,181.91
1959-02-15,255.61
1959-02-16,314.19
1959-02-17,434.27
1959-02-18,371.35
1959-02-19,276.16
1959-02-20,237.43
1959-02-21,351.46
1959-02-22,295.59
1959-02-23,323.92
1959-02-24,268.05
1959-02-25,240.92
1959-02-26,221.34
1959-02-27,256.73
1959-02-28,250.27
1959-03-01,250.54
1959-03-02,324.24
1959-03-03,287.53
1959-03-04,226.11
1959-03-05,160.67
1959-03-06,343.77
1959-03-07,287.9
1959-03-08,217.91
1959-03-09,274.47
1959-03-10,296.24
1959-03-11,278.18
1959-03-12,270.71
1959-03-13,348.95
1959-03-14,278.46
1959-03-15,231.16
1959-03-16,324.11
1959-03-17,266.73
1959-03-18,389.93
1959-03-19,328.01
1959-03-20,326.18
1959-03-21,252.76
1959-03-22,308.31
1959-03-23,345.3
1959-03-24,359.1
1959-03-25,324.91
1959-03-26,334.17
1959-03-27,315.7
1959-03-28,278.49
1959-03-29,279.18
1959-03-30,241.95
1959-03-31,316.25
1959-04-01,316.25
1959-04-02,381.47
1959-04-03,401.74
1959-04-04,395.88
1959-04-05,447.0
1959-04-06,500.54
1959-04-07,482.08
1959-04-08,445.46
1959-04-09,385.05
1959-04-10,393.81
1959-04-11,505.83
1959-04-12,404.67
1959-04-13,341.31
1959-04-14,355.0
1959-04-15,234.18
1959-04-16,189.38
1959-04-17,210.14
1959-04-18,262.75
1959-04-19,351.57
1959-04-20,199.89
1959-04-21,92.08
1959-04-22,189.97
1959-04-23,197.21
1959-04-24,278.47
1959-04-25,271.51
1959-04-26,111.76
1959-04-27,290.83
1959-04-28,250.68
1959-04-29,308.76
1959-04-30,319.44
1959-05-01,564.07
1959-05-02,430.05
1959-05-03,460.39
1959-05-04,460.07
1959-05-05,442.52
1959-05-06,452.2
1959-05-07,359.52
1959-05-08,361.61
1959-05-09,339.1
1959-05-10,310.94
1959-05-11,367.49
1959-05-12,502.19
1959-05-13,553.72
1959-05-14,662.83
1959-05-15,960.95
1959-05-16,1257.51
1959-05-17,1171.99
1959-05-18,1135.87
1959-05-19,928.31
1959-05-20,786.67
1959-05-21,696.04
1959-05-22,583.71
1959-05-23,565.57
1959-05-24,416.42
1959-05-25,435.15
1959-05-26,485.57
1959-05-27,476.1
1959-05-28,498.41
1959-05-29,642.24
1959-05-30,676.57
1959-05-31,793.2
1959-06-01,950.07
1959-06-02,947.2
1959-06-03,1202.4
1959-06-04,1502.61
1959-06-05,1472.61
1959-06-06,1397.65
1959-06-07,1488.17
1959-06-08,1177.32
1959-06-09,1672.22
1959-06-10,1181.78
1959-06-11,1022.14
1959-06-12,1018.78
1959-06-13,1000.69
1959-06-14,892.44
1959-06-15,611.23
1959-06-16,664.09
1959-06-17,861.26
1959-06-18,707.01
1959-06-19,538.11
1959-06-20,441.69
1959-06-21,298.97
1959-06-22,324.13
1959-06-23,332.67
1959-06-24,375.89
1959-06-25,196.34
1959-06-26,158.97
1959-06-27,273.78
1959-06-28,318.12
1959-06-29,330.2
1959-06-30,419.93
1959-07-01,433.93
1959-07-02,250.37
1959-07-03,425.8
1959-07-04,237.69
1959-07-05,340.4
1959-07-06,241.02
1959-07-07,353.4
1959-07-08,48.28
1959-07-09,87.93
1959-07-10,199.28
1959-07-11,237.04
1959-07-12,194.53
1959-07-13,268.58
1959-07-14,118.77
1959-07-15,107.1
1959-07-16,344.43
1959-07-17,214.31
1959-07-18,192.98
1959-07-19,46.2
1959-07-20,238.16
1959-07-21,253.64
1959-07-22,126.02
1959-07-23,108.71
1959-07-24,250.83
1959-07-25,104.96
1959-07-26,114.47
1959-07-27,147.08
1959-07-28,134.91
1959-07-29,100.96
1959-07-30,95.85
1959-07-31,131.49
1959-08-01,117.81
1959-08-02,110.19
1959-08-03,152.9
1959-08-04,166.46
1959-08-05,108.83
1959-08-06,208.51
1959-08-07,157.02
1959-08-08,168.47
1959-08-09,125.04
1959-08-10,67.39
1959-08-11,83.94
1959-08-12,81.27
1959-08-13,83.21
1959-08-14,143.56
1959-08-15,24.01
1959-08-16,136.8
1959-08-17,135.66
1959-08-18,67.95
1959-08-19,12.36
1959-08-20,36.94
1959-08-21,190.1
1959-08-22,151.75
1959-08-23,121.9
1959-08-24,122.79
1959-08-25,120.15
1959-08-26,97.34
1959-08-27,116.39
1959-08-28,141.48
1959-08-29,134.38
1959-08-30,107.04
1959-08-31,108.43
1959-09-01,106.37
1959-09-02,79.54
1959-09-03,86.98
1959-09-04,153.93
1959-09-05,72.14
1959-09-06,51.85
1959-09-07,50.8
1959-09-08,159.09
1959-09-09,75.29
1959-09-10,86.78
1959-09-11,155.74
1959-09-12,95.14
1959-09-13,133.87
1959-09-14,54.68
1959-09-15,92.9
1959-09-16,119.96
1959-09-17,71.47
1959-09-18,130.36
1959-09-19,191.29
1959-09-20,93.32
1959-09-21,221.8
1959-09-22,118.87
1959-09-23,188.28
1959-09-24,188.21
1959-09-25,185.6
1959-09-26,192.08
1959-09-27,241.34
1959-09-28,241.26
1959-09-29,221.02
1959-09-30,166.92
1959-10-01,166.34
1959-10-02,201.05
1959-10-03,204.0
1959-10-04,200.83
1959-10-05,78.75
1959-10-06,93.3
1959-10-07,165.76
1959-10-08,180.31
1959-10-09,474.18
1959-10-10,396.47
1959-10-11,264.73
1959-10-12,119.45
1959-10-13,202.06
1959-10-14,245.77
1959-10-15,202.34
1959-10-16,191.67
1959-10-17,288.9
1959-10-18,274.72
1959-10-19,260.96
1959-10-20,256.86
1959-10-21,236.62
1959-10-22,236.54
1959-10-23,236.47
1959-10-24,217.24
1959-10-25,216.16
1959-10-26,229.12
1959-10-27,253.75
1959-10-28,308.64
1959-10-29,302.02
1959-10-30,316.07
1959-10-31,236.85
1959-11-01,265.59
1959-11-02,273.01
1959-11-03,272.94
1959-11-04,288.0
1959-11-05,214.32
1959-11-06,221.81
1959-11-07,236.36
1959-11-08,273.52
1959-11-09,265.89
1959-11-10,280.94
1959-11-11,252.64
1959-11-12,222.82
1959-11-13,318.54
1959-11-14,199.41
1959-11-15,160.52
1959-11-16,234.13
1959-11-17,196.75
1959-11-18,229.52
1959-11-19,268.77
1959-11-20,194.66
1959-11-21,216.34
1959-11-22,224.33
1959-11-23,239.46
1959-11-24,248.97
1959-11-25,239.39
1959-11-26,171.76
1959-11-27,194.45
1959-11-28,179.25
1959-11-29,193.87
1959-11-30,193.79
1959-12-01,220.51
1959-12-02,219.0
1959-12-03,249.68
1959-12-04,234.56
1959-12-05,189.11
1959-12-06,211.8
1959-12-07,105.85
1959-12-08,173.91
1959-12-09,181.4
1959-12-10,234.33
1959-12-11,211.65
1959-12-12,211.57
1959-12-13,204.01
1959-12-14,219.06
1959-12-15,189.32
1959-12-16,173.69
1959-12-17,181.68
1959-12-18,188.23
1959-12-19,204.37
1959-12-20,181.68
1959-12-21,211.42
1959-12-22,204.37
1959-12-23,204.37
1959-12-24,188.74
1959-12-25,189.24
1959-12-26,235.12
1959-12-27,181.1
1959-12-28,173.54
1959-12-29,158.41
1959-12-30,158.41
1959-12-31,158.41
1960-01-01,181.1
1960-01-02,189.17
1960-01-03,158.41
1960-01-04,172.03
1960-01-05,155.39
1960-01-06,155.31
1960-01-07,185.56
1960-01-08,278.33
1960-01-09,224.38
1960-01-10,209.26
1960-01-11,228.92
1960-01-12,229.43
1960-01-13,198.67
1960-01-14,198.17
1960-01-15,175.48
1960-01-16,175.48
1960-01-17,152.29
1960-01-18,152.29
1960-01-19,152.29
1960-01-20,152.29
1960-01-21,152.29
1960-01-22,175.48
1960-01-23,252.7
1960-01-24,214.38
1960-01-25,198.75
1960-01-26,245.64
1960-01-27,245.64
1960-01-28,183.13
1960-01-29,168.0
1960-01-30,168.08
1960-01-31,175.64
1960-02-01,191.27
1960-02-02,230.09
1960-02-03,199.34
1960-02-04,152.45
1960-02-05,121.2
1960-02-06,176.15
1960-02-07,238.24
1960-02-08,246.81
1960-02-09,261.94
1960-02-10,246.31
1960-02-11,218.58
1960-02-12,175.73
1960-02-13,176.23
1960-02-14,183.79
1960-02-15,215.64
1960-02-16,199.58
1960-02-17,184.03
1960-02-18,192.68
1960-02-19,192.26
1960-02-20,168.64
1960-02-21,168.72
1960-02-22,200.56
1960-02-23,153.25
1960-02-24,153.33
1960-02-25,160.97
1960-02-26,167.1
1960-02-27,166.68
1960-02-28,166.76
1960-02-29,119.45
1960-03-01,151.87
1960-03-02,135.82
1960-03-03,151.53
1960-03-04,199.51
1960-03-05,246.98
1960-03-06,200.18
1960-03-07,263.79
1960-03-08,344.54
1960-03-09,425.81
1960-03-10,346.74
1960-03-11,225.83
1960-03-12,290.96
1960-03-13,294.07
1960-03-14,302.73
1960-03-15,188.37
1960-03-16,229.88
1960-03-17,205.26
1960-03-18,237.7
1960-03-19,253.92
1960-03-20,278.3
1960-03-21,378.3
1960-03-22,320.92
1960-03-23,356.4
1960-03-24,363.14
1960-03-25,347.61
1960-03-26,341.24
1960-03-27,409.5
1960-03-28,385.41
1960-03-29,319.05
1960-03-30,380.16
1960-03-31,348.09
1960-04-01,290.63
1960-04-02,256.03
1960-04-03,299.49
1960-04-04,283.05
1960-04-05,335.68
1960-04-06,320.66
1960-04-07,436.83
1960-04-08,429.48
1960-04-09,410.44
1960-04-10,523.59
1960-04-11,439.01
1960-04-12,565.78
1960-04-13,523.15
1960-04-14,424.96
1960-04-15,571.4
1960-04-16,405.65
1960-04-17,387.62
1960-04-18,414.55
1960-04-19,428.28
1960-04-20,248.4
1960-04-21,289.84
1960-04-22,304.05
1960-04-23,339.54
1960-04-24,431.42
1960-04-25,396.74
1960-04-26,504.26
1960-04-27,417.16
1960-04-28,377.02
1960-04-29,374.61
1960-04-30,373.7
1960-05-01,486.24
1960-05-02,334.57
1960-05-03,284.24
1960-05-04,339.88
1960-05-05,215.43
1960-05-06,283.58
1960-05-07,284.17
1960-05-08,300.9
1960-05-09,353.02
1960-05-10,575.97
1960-05-11,848.87
1960-05-12,1147.52
1960-05-13,1675.13
1960-05-14,1842.89
1960-05-15,1690.89
1960-05-16,1556.45
1960-05-17,1416.04
1960-05-18,1237.29
1960-05-19,993.96
1960-05-20,813.01
1960-05-21,878.21
1960-05-22,592.98
1960-05-23,852.19
1960-05-24,886.66
1960-05-25,891.88
1960-05-26,706.89
1960-05-27,669.74
1960-05-28,577.1
1960-05-29,584.8
1960-05-30,728.54
1960-05-31,681.8
1960-06-01,697.47
1960-06-02,992.08
1960-06-03,1241.25
1960-06-04,1481.49
1960-06-05,1459.57
1960-06-06,1218.7
1960-06-07,972.35
1960-06-08,979.1
1960-06-09,978.81
1960-06-10,886.63
1960-06-11,859.59
1960-06-12,641.42
1960-06-13,544.13
1960-06-14,404.07
1960-06-15,232.7
1960-06-16,246.65
1960-06-17,375.19
1960-06-18,280.36
1960-06-19,178.96
1960-06-20,261.99
1960-06-21,150.5
1960-06-22,214.48
1960-06-23,329.9
1960-06-24,186.05
1960-06-25,223.81
1960-06-26,294.85
1960-06-27,121.75
1960-06-28,236.65
1960-06-29,215.42
1960-06-30,253.68
1960-07-01,44.26
1960-07-02,118.8
1960-07-03,187.81
1960-07-04,81.36
1960-07-05,204.71
1960-07-06,155.24
1960-07-07,120.38
1960-07-08,116.26
1960-07-09,157.41
1960-07-10,335.87
1960-07-11,42.88
1960-07-12,91.59
1960-07-13,-1.79
1960-07-14,-10.98
1960-07-15,-21.17
1960-07-16,-71.81
1960-07-17,-164.2
1960-07-18,-112.47
1960-07-19,914.05
1960-07-20,779.37
1960-07-21,195.9
1960-07-22,92.48
1960-07-23,119.54
1960-07-24,125.03
1960-07-25,35.62
1960-07-26,171.18
1960-07-27,183.12
1960-07-28,16.17
1960-07-29,47.26
1960-07-30,188.88
1960-07-31,82.84
1960-08-01,170.01
1960-08-02,104.41
1960-08-03,119.89
1960-08-04,14.44
1960-08-05,47.06
1960-08-06,-6.04
1960-08-07,80.62
1960-08-08,142.49
1960-08-09,67.31
1960-08-10,123.13
1960-08-11,133.16
1960-08-12,76.55
1960-08-13,66.9
1960-08-14,83.4
1960-08-15,105.52
1960-08-16,108.91
1960-08-17,-1.16
1960-08-18,75.32
1960-08-19,174.0
1960-08-20,94.19
1960-08-21,121.27
1960-08-22,96.0
1960-08-23,32.34
1960-08-24,39.77
1960-08-25,103.68
1960-08-26,163.06
1960-08-27,209.33
1960-08-28,-38.85
1960-08-29,170.34
1960-08-30,86.53
1960-08-31,106.58
1960-09-01,53.61
1960-09-02,126.6
1960-09-03,115.9
1960-09-04,110.75
1960-09-05,194.85
1960-09-06,28.86
1960-09-07,97.39
1960-09-08,108.38
1960-09-09,82.05
1960-09-10,167.15
1960-09-11,45.04
1960-09-12,91.82
1960-09-13,63.48
1960-09-14,80.09
1960-09-15,132.43
1960-09-16,103.01
1960-09-17,116.53
1960-09-18,158.28
1960-09-19,78.01
1960-09-20,63.21
1960-09-21,86.31
1960-09-22,100.33
1960-09-23,114.78
1960-09-24,118.72
1960-09-25,145.35
1960-09-26,89.3
1960-09-27,98.71
1960-09-28,100.63
1960-09-29,167.6
1960-09-30,37.36
1960-10-01,84.15
1960-10-02,113.81
1960-10-03,107.16
1960-10-04,82.81
1960-10-05,120.02
1960-10-06,32.22
1960-10-07,93.58
1960-10-08,99.05
1960-10-09,102.01
1960-10-10,152.36
1960-10-11,162.3
1960-10-12,153.16
1960-10-13,150.07
1960-10-14,162.03
1960-10-15,139.27
1960-10-16,145.75
1960-10-17,174.92
1960-10-18,114.35
1960-10-19,157.57
1960-10-20,137.84
1960-10-21,153.9
1960-10-22,175.51
1960-10-23,159.81
1960-10-24,160.25
1960-10-25,144.55
1960-10-26,137.86
1960-10-27,159.47
1960-10-28,152.34
1960-10-29,156.81
1960-10-30,112.87
1960-10-31,151.12
1960-11-01,196.5
1960-11-02,133.33
1960-11-03,207.37
1960-11-04,159.41
1960-11-05,199.16
1960-11-06,195.06
1960-11-07,220.7
1960-11-08,245.27
1960-11-09,174.11
1960-11-10,266.81
1960-11-11,154.31
1960-11-12,245.99
1960-11-13,231.3
1960-11-14,260.91
1960-11-15,224.03
1960-11-16,209.92
1960-11-17,231.52
1960-11-18,217.41
1960-11-19,231.96
1960-11-20,188.1
1960-11-21,217.34
1960-11-22,207.19
1960-11-23,207.19
1960-11-24,210.14
1960-11-25,195.52
1960-11-26,203.52
1960-11-27,218.14
1960-11-28,173.7
1960-11-29,187.82
1960-11-30,188.75
1960-12-01,318.83
1960-12-02,229.09
1960-12-03,235.06
1960-12-04,212.37
1960-12-05,198.18
1960-12-06,214.81
1960-12-07,182.97
1960-12-08,177.93
1960-12-09,69.96
1960-12-10,204.57
1960-12-11,189.95
1960-12-12,160.63
1960-12-13,139.96
1960-12-14,135.35
1960-12-15,315.83
1960-12-16,177.19
1960-12-17,209.88
1960-12-18,206.86
1960-12-19,243.16
1960-12-20,178.12
1960-12-21,178.12
1960-12-22,229.54
1960-12-23,186.68
1960-12-24,208.36
1960-12-25,208.86
1960-12-26,158.95
1960-12-27,198.2
1960-12-28,161.9
1960-12-29,116.02
1960-12-30,134.17
1960-12-31,176.02
1961-01-01,161.9
1961-01-02,150.3
1961-01-03,133.16
1961-01-04,154.34
1961-01-05,169.97
1961-01-06,134.6
1961-01-07,184.52
1961-01-08,191.57
1961-01-09,183.0
1961-01-10,182.5
1961-01-11,156.28
1961-01-12,184.52
1961-01-13,177.46
1961-01-14,191.58
1961-01-15,177.46
1961-01-16,177.97
1961-01-17,173.93
1961-01-18,189.06
1961-01-19,159.82
1961-01-20,194.1
1961-01-21,141.67
1961-01-22,134.61
1961-01-23,181.57
1961-01-24,165.94
1961-01-25,182.07
1961-01-26,169.47
1961-01-27,166.44
1961-01-28,144.77
1961-01-29,144.77
1961-01-30,183.66
1961-01-31,171.05
1961-02-01,165.51
1961-02-02,160.97
1961-02-03,182.15
1961-02-04,153.91
1961-02-05,146.35
1961-02-06,182.65
1961-02-07,196.84
1961-02-08,175.67
1961-02-09,189.79
1961-02-10,189.79
1961-02-11,197.85
1961-02-12,190.29
1961-02-13,146.43
1961-02-14,175.67
1961-02-15,156.59
1961-02-16,203.04
1961-02-17,180.93
1961-02-18,166.89
1961-02-19,144.78
1961-02-20,181.15
1961-02-21,176.69
1961-02-22,198.44
1961-02-23,154.66
1961-02-24,140.11
1961-02-25,165.9
1961-02-26,153.87
1961-02-27,156.97
1961-02-28,179.23
1961-03-01,216.77
1961-03-02,195.17
1961-03-03,135.75
1961-03-04,218.01
1961-03-05,173.73
1961-03-06,211.62
1961-03-07,189.51
1961-03-08,152.29
1961-03-09,182.62
1961-03-10,181.18
1961-03-11,163.12
1961-03-12,178.83
1961-03-13,186.47
1961-03-14,194.62
1961-03-15,240.58
1961-03-16,81.42
1961-03-17,493.92
1961-03-18,258.64
1961-03-19,182.1
1961-03-20,182.76
1961-03-21,182.93
1961-03-22,186.54
1961-03-23,223.51
1961-03-24,241.82
1961-03-25,251.5
1961-03-26,200.74
1961-03-27,225.11
1961-03-28,186.37
1961-03-29,202.18
1961-03-30,163.95
1961-03-31,219.07
1961-04-01,227.15
1961-04-02,211.69
1961-04-03,183.55
1961-04-04,231.62
1961-04-05,168.77
1961-04-06,160.79
1961-04-07,225.5
1961-04-08,183.32
1961-04-09,196.53
1961-04-10,144.77
1961-04-11,127.21
1961-04-12,103.68
1961-04-13,122.0
1961-04-14,87.3
1961-04-15,63.26
1961-04-16,115.78
1961-04-17,147.62
1961-04-18,167.45
1961-04-19,54.59
1961-04-20,90.46
1961-04-21,131.38
1961-04-22,102.73
1961-04-23,37.84
1961-04-24,108.0
1961-04-25,103.53
1961-04-26,108.15
1961-04-27,108.23
1961-04-28,147.71
1961-04-29,129.13
1961-04-30,-71.95
1961-05-01,161.54
1961-05-02,183.78
1961-05-03,183.34
1961-05-04,274.24
1961-05-05,182.04
1961-05-06,252.18
1961-05-07,217.46
1961-05-08,186.77
1961-05-09,181.86
1961-05-10,255.04
1961-05-11,269.22
1961-05-12,450.81
1961-05-13,675.79
1961-05-14,480.87
1961-05-15,408.36
1961-05-16,261.65
1961-05-17,264.76
1961-05-18,250.72
1961-05-19,267.93
1961-05-20,263.9
1961-05-21,376.93
1961-05-22,466.28
1961-05-23,540.94
1961-05-24,609.12
1961-05-25,620.36
1961-05-26,684.45
1961-05-27,687.12
1961-05-28,611.63
1961-05-29,795.84
1961-05-30,805.03
1961-05-31,714.44
1961-06-01,643.41
1961-06-02,586.56
1961-06-03,456.51
1961-06-04,525.7
1961-06-05,379.59
1961-06-06,415.39
1961-06-07,312.61
1961-06-08,238.04
1961-06-09,187.14
1961-06-10,185.57
1961-06-11,173.49
1961-06-12,234.53
1961-06-13,139.68
1961-06-14,212.31
1961-06-15,121.57
1961-06-16,138.58
1961-06-17,140.54
1961-06-18,85.53
1961-06-19,118.75
1961-06-20,118.1
1961-06-21,55.51
1961-06-22,134.59
1961-06-23,132.0
1961-06-24,39.08
1961-06-25,88.41
1961-06-26,192.23
1961-06-27,-85.21
1961-06-28,64.98
1961-06-29,145.61
1961-06-30,7.41
1961-07-01,74.84
1961-07-02,75.3
1961-07-03,131.23
1961-07-04,63.63
1961-07-05,97.3
1961-07-06,164.82
1961-07-07,106.8
1961-07-08,66.42
1961-07-09,96.05
1961-07-10,65.77
1961-07-11,87.92
1961-07-12,98.4
1961-07-13,24.24
1961-07-14,89.75
1961-07-15,88.21
1961-07-16,94.66
1961-07-17,33.62
1961-07-18,101.08
1961-07-19,81.89
1961-07-20,69.69
1961-07-21,65.05
1961-07-22,158.3
1961-07-23,36.19
1961-07-24,23.04
1961-07-25,95.55
1961-07-26,52.66
1961-07-27,67.68
1961-07-28,85.3
1961-07-29,45.88
1961-07-30,80.13
1961-07-31,61.39
1961-08-01,92.62
1961-08-02,39.66
1961-08-03,109.65
1961-08-04,61.23
1961-08-05,94.92
1961-08-06,72.64
1961-08-07,48.41
1961-08-08,90.17
1961-08-09,71.99
1961-08-10,85.0
1961-08-11,79.43
1961-08-12,79.34
1961-08-13,57.14
1961-08-14,113.52
1961-08-15,114.51
1961-08-16,38.29
1961-08-17,58.36
1961-08-18,152.06
1961-08-19,97.52
1961-08-20,55.07
1961-08-21,107.91
1961-08-22,63.51
1961-08-23,49.8
1961-08-24,74.93
1961-08-25,46.11
1961-08-26,48.04
1961-08-27,54.51
1961-08-28,154.27
1961-08-29,64.5
1961-08-30,35.18
1961-08-31,95.1
1961-09-01,135.42
1961-09-02,-19.45
1961-09-03,64.66
1961-09-04,92.31
1961-09-05,148.2
1961-09-06,58.88
1961-09-07,55.84
1961-09-08,84.99
1961-09-09,29.46
1961-09-10,98.47
1961-09-11,134.71
1961-09-12,127.58
1961-09-13,125.5
1961-09-14,131.55
1961-09-15,129.47
1961-09-16,137.92
1961-09-17,117.18
1961-09-18,198.31
1961-09-19,256.77
1961-09-20,254.66
1961-09-21,224.37
1961-09-22,223.83
1961-09-23,226.25
1961-09-24,239.33
1961-09-25,195.42
1961-09-26,183.78
1961-09-27,223.0
1961-09-28,196.23
1961-09-29,201.72
1961-09-30,156.23
1961-10-01,226.26
1961-10-02,149.07
1961-10-03,117.24
1961-10-04,169.05
1961-10-05,123.11
1961-10-06,130.61
1961-10-07,118.89
1961-10-08,119.33
1961-10-09,167.68
1961-10-10,185.78
1961-10-11,166.0
1961-10-12,208.79
1961-10-13,123.02
1961-10-14,171.8
1961-10-15,192.91
1961-10-16,159.58
1961-10-17,192.29
1961-10-18,184.67
1961-10-19,152.27
1961-10-20,193.05
1961-10-21,173.32
1961-10-22,132.93
1961-10-23,186.31
1961-10-24,206.92
1961-10-25,202.32
1961-10-26,212.78
1961-10-27,350.86
1961-10-28,311.48
1961-10-29,284.2
1961-10-30,225.15
1961-10-31,284.58
1961-11-01,277.03
1961-11-02,259.75
1961-11-03,225.41
1961-11-04,288.37
1961-11-05,225.28
1961-11-06,206.05
1961-11-07,220.61
1961-11-08,241.14
1961-11-09,241.58
1961-11-10,259.66
1961-11-11,236.41
1961-11-12,178.87
1961-11-13,240.31
1961-11-14,190.26
1961-11-15,228.0
1961-11-16,254.22
1961-11-17,254.16
1961-11-18,190.64
1961-11-19,306.53
1961-11-20,365.01
1961-11-21,336.28
1961-11-22,217.23
1961-11-23,322.6
1961-11-24,267.57
1961-11-25,303.87
1961-11-26,289.18
1961-11-27,303.3
1961-11-28,282.56
1961-11-29,252.81
1961-11-30,318.28
1961-12-01,289.04
1961-12-02,281.98
1961-12-03,362.58
1961-12-04,338.38
1961-12-05,277.81
1961-12-06,314.1
1961-12-07,241.43
1961-12-08,278.23
1961-12-09,234.3
1961-12-10,218.16
1961-12-11,231.77
1961-12-12,15.41
1961-12-13,232.7
1961-12-14,210.95
1961-12-15,280.02
1961-12-16,319.85
1961-12-17,269.36
1961-12-18,305.16
1961-12-19,255.24
1961-12-20,336.41
1961-12-21,335.4
1961-12-22,293.56